Location: Unspecified
(0.0000°N, 0.0000°E)
Time: 04:41:05
(UTC+00:00)

Vanguard 1 - Pass Details

Date: 13 December 2023
Orbit: 653 x 3826 km, 34.3° (Epoch: 22 February)

Event Time Altitude Azimuth Distance (km) Brightness Sun altitude
Rises 12:27:50 0° 243° (WSW) 3,027 12.8 65.4°
Reaches altitude 10° 12:29:54 10° 248° (WSW) 2,212 12.3 65.3°
Maximum altitude 12:34:44 57° 327° (NNW) 1,063 10.9 64.8°
Drops below altitude 10° 12:42:21 10° 44° (NE) 3,435 12.7 64.0°
Sets 12:46:20 0° 48° (NE) 4,901 13.4 63.6°
